Probability
0 0 0 0 0 0 0 0 0 0 0 0 0 0 0 0 0 0 0 0 0 0 0 0 0 0 0 0 0 0 0 0 0 0 0 0 0 0 0 0 0 0 0
0 0 0 0 0 0 0 0 0 0 0 0 0 0 0 0 0 0 0 0 0 0 0 0 0 0 0 0 0 0 0 0 0 0 0 0 0 0 0 0 0 0 0
0 0 0 0 0 0 0 0 0 0 0 0 0 0 0 0 0 0 0 0 0 0 0 0 0 0 0 0 0 0 0 0 0 0 0 0 0 0 0 0 0 0 0
0 0 0 0 0 0 0 0 0 0 0 0 0 0 0 0 0 0 0 0 0 0 0 0 0 0 0 0 0 0 0 0 0 0 0 0 0 0 0 0 0 0 0
0 0 0 0 0 0 0 0 0 0 0 0 0 0 0 0 0 0 0 0 0 0 0 0 0 0 0 0 0 0 0 0 0 0 0 0 0 0 0 0 0 0 0
0 0 0 0 0 0 0 0 0 0 0 0 0 0 0 0 0 0 0 0 0 0 0 0 0 0 0 0 0 0 0 0 0 0 0 0 0 0 0 0 0 0 0
0 0 0 0 0 0 0 0 0 0 0 0 0 0 0 0 0 0 0 0 0 0 0 0 0 0 0 0 0 0 0 0 0 0 0 0 0 0 0 0 0 0 0
0 0 0 0 0 0 0 0 0 0 0 0 0 0 0 0 0 0 0 0 0 0 0 0 0 0 0 0 0 0 0 0 0 0 0 0 0 0 0 0 0 0 0
0 0 0 0 0 0 0 0 0 0 0 0 0 0 0 0 0 0 0 0 0 0 0 0 0 0 0 0 0 0 0 0 0 0 0 0 0 0 0 0 0 0 0
0 0 0 0 0 0 0 0 0 0 0 0 0 0 0 0 0 0 0 0 0 0 0 0 0 0 0 0 0 0 0 0 0 0 0 0 0 0 0 0 0 0 0
0 0 0 0 0 0 0 0 0 0 0 0 0 0 0 0 0 0 0 0 0 0 0 0 0 0 0 0 0 0 0 0 0 0 0 0 0 0 0 0 0 0 0
0 0 0 0 0 0 0 0 0 0 0 0 0 0 0 0 0 0 0 0 0 0 0 0 0 0 0 0 0 0 0 0 0 0 0 0 0 0 0 0 0 0 0
0 0 0 0 0 0 0 0 0 0 0 0 0 0 0 0 0 0 0 0 0 0 0 0 0 0 0 0 0 0 0 0 0 0 0 0 0 0 0 0 0 0 0
0 0 0 0 0 0 0 0 0 0 0 0 0 0 0 0 0 0 0 0 0 0 0 0 0 0 0 0 0 0 0 0 0 0 0 0 0 0 0 0 0 0 0
0 0 0 0 0 0 0 0 0 0 0 0 0 0 0 0 0 0 0 0 0 0 0 0 0 0 0 0 0 0 0 0 0 0 0 0 0 0 0 0 0 0 0
0 0 0 0 0 0 0 0 0 0 0 0 0 0 0 0 0 0 0 0 0 0 0 0 0 0 0 0 0 0 0 0 0 0 0 0 0 0 0 0 0 0 0
0 0 0 0 0 0 0 0 0 0 0 0 0 0 0 0 0 0 0 0 0 0 0 0 0 0 0 0 0 0 0 0 0 0 0 0 0 0 0 0 0 0 0
0 0 0 0 0 0 0 0 0 0 0 0 0 0 0 0 0 0 0 0 0 0 0 0 0 0 0 0 0 0 0 0 0 0 0 0 0 0 0 0 0 0 0
0 0 0 0 0 0 0 0 0 0 0 0 0 0 0 0 0 0 0 0 0 0 0 0 0 0 0 0 0 0 0 0 0 0 0 0 0 0 0 0 0 0 0
0 0 0 0 0 0 0 0 0 0 0 0 0 0 0 0 0 0 0 0 0 0 0 0 0 0 0 0 0 0 0 0 0 0 0 0 0 0 0 0 0 0 0
0 0 0 0 0 0 0 0 0 0 0 0 0 0 0 0 0 0 0 0 0 0 0 0 0 0 0 0 0 0 0 0 0 0 0 0 0 0 0 0 0 0 0
0 0 0 0 0 0 0 0 0 0 0 0 0 0 0 0 0 0 0 0 0 0 0 0 0 0 0 0 0 0 0 0 0 0 0 0 0 0 0 0 0 0 0
0 0 0 0 0 0 0 0 0 0 0 0 0 0 0 0 0 0 0 0 0 0 0 0 0 0 0 0 0 0 0 0 0 0 0 0 0 0 0 0 0 0 0
0 0 0 0 0 0 0 0 0 0 0 0 0 0 0 0 0 0 0 0 0 0 0 0 0 0 0 0 0 0 0 0 0 0 0 0 0 0 0 0 0 0 0
0 0 0 0 0 0 0 0 0 0 0 0 0 0 0 0 0 0 0 0 0 0 0 0 0 0 0 0 0 0 0 0 0 0 0 0 0 0 0 0 0 0 0
0 0 0 0 0 0 0 0 0 0 0 0 0 0 0 0 0 0 0 0 0 0 0 0 0 0 0 0 0 0 0 0 0 0 0 0 0 0 0 0 0 0 0
Height
5671 5671 5671 5671 5672 5672 5673 5673 5674 5674 5675 5675 5676 5677 5678 5678 5679 5680 5680 5681 5681 5682 5683 5684 5684 5685 5685 5685 5686 5685 5685 5685 5686 5686 5684 5683 5682 5681 5679 5677 5676 5674 5672
5662 5662 5663 5663 5663 5664 5664 5665 5665 5666 5666 5666 5667 5668 5668 5669 5669 5670 5670 5671 5672 5673 5673 5674 5675 5675 5675 5675 5675 5676 5676 5675 5676 5676 5675 5673 5672 5671 5669 5668 5666 5664 5662
5654 5654 5654 5654 5654 5655 5655 5656 5656 5657 5657 5657 5658 5658 5659 5659 5659 5660 5660 5661 5662 5663 5663 5664 5665 5665 5666 5666 5666 5666 5666 5666 5665 5665 5664 5663 5662 5661 5659 5658 5656 5654 5651
5645 5645 5646 5646 5646 5646 5646 5647 5647 5648 5648 5648 5649 5649 5649 5649 5650 5650 5650 5651 5651 5652 5653 5654 5655 5655 5656 5656 5656 5656 5656 5656 5655 5655 5654 5653 5652 5651 5649 5648 5646 5644 5641
5637 5637 5637 5637 5637 5637 5637 5638 5638 5639 5639 5640 5640 5640 5640 5640 5640 5640 5640 5640 5641 5642 5643 5644 5644 5645 5645 5646 5646 5646 5646 5646 5645 5645 5644 5643 5642 5640 5639 5637 5636 5634 5631
5628 5628 5628 5628 5628 5628 5628 5629 5629 5630 5630 5631 5631 5631 5631 5631 5630 5630 5630 5630 5631 5632 5632 5633 5634 5635 5635 5636 5636 5636 5636 5636 5635 5634 5634 5633 5632 5630 5629 5627 5625 5623 5621
5619 5619 5619 5619 5619 5619 5619 5620 5620 5621 5621 5622 5622 5622 5622 5621 5621 5621 5621 5621 5621 5622 5623 5623 5624 5625 5625 5626 5626 5626 5626 5625 5625 5625 5624 5623 5621 5620 5618 5616 5614 5612 5610
5609 5609 5609 5609 5609 5609 5610 5610 5611 5611 5612 5612 5612 5612 5612 5612 5612 5612 5611 5612 5612 5612 5613 5614 5614 5614 5615 5616 5616 5616 5616 5615 5614 5614 5613 5612 5610 5609 5607 5605 5603 5601 5598
5599 5599 5599 5599 5600 5600 5600 5600 5601 5601 5602 5602 5602 5602 5602 5602 5602 5602 5602 5603 5603 5603 5603 5604 5604 5605 5605 5605 5606 5606 5605 5605 5604 5603 5602 5601 5599 5598 5596 5594 5592 5589 5587
5588 5588 5588 5589 5589 5590 5590 5590 5591 5591 5591 5592 5592 5592 5592 5593 5593 5592 5593 5593 5593 5593 5593 5594 5594 5594 5595 5595 5595 5595 5595 5594 5593 5592 5591 5590 5589 5587 5585 5583 5580 5577 5574
5577 5577 5578 5578 5578 5579 5579 5580 5580 5581 5581 5581 5582 5582 5582 5582 5582 5582 5582 5582 5583 5583 5583 5583 5583 5584 5584 5584 5584 5584 5584 5584 5583 5582 5581 5580 5578 5576 5574 5571 5568 5565 5563
5565 5566 5566 5567 5567 5568 5568 5569 5569 5570 5570 5571 5571 5571 5571 5571 5571 5571 5571 5571 5571 5572 5573 5573 5573 5573 5573 5573 5573 5573 5573 5573 5572 5571 5570 5569 5567 5565 5563 5560 5557 5554 5551
5553 5554 5554 5555 5555 5556 5557 5557 5558 5558 5559 5559 5560 5560 5560 5560 5560 5560 5560 5560 5561 5561 5562 5562 5562 5562 5562 5562 5562 5562 5562 5561 5561 5560 5559 5557 5556 5554 5551 5549 5546 5543 5540
5540 5541 5542 5542 5543 5544 5544 5545 5546 5546 5547 5547 5548 5548 5549 5549 5549 5549 5549 5550 5550 5550 5551 5551 5551 5551 5551 5551 5551 5550 5550 5550 5549 5548 5547 5546 5544 5542 5540 5537 5535 5532 5529
5527 5528 5528 5529 5530 5531 5532 5533 5534 5534 5534 5536 5536 5537 5537 5538 5538 5538 5538 5539 5539 5539 5540 5540 5540 5540 5540 5540 5540 5539 5539 5538 5538 5537 5536 5534 5533 5531 5528 5526 5523 5520 5518
5513 5513 5514 5516 5517 5518 5519 5520 5521 5522 5522 5523 5524 5525 5525 5526 5526 5526 5527 5527 5527 5528 5529 5529 5529 5529 5529 5529 5529 5528 5528 5527 5526 5525 5524 5523 5521 5519 5517 5515 5512 5509 5507
5498 5499 5500 5502 5503 5505 5506 5507 5508 5509 5510 5511 5512 5512 5513 5514 5514 5515 5515 5516 5516 5517 5518 5518 5518 5518 5518 5518 5518 5517 5516 5516 5515 5514 5513 5511 5510 5508 5506 5504 5501 5499 5496
5483 5485 5486 5488 5489 5491 5492 5493 5495 5496 5498 5499 5499 5500 5501 5502 5502 5503 5504 5505 5505 5506 5507 5507 5507 5508 5507 5507 5507 5506 5505 5504 5503 5503 5501 5500 5499 5497 5495 5493 5490 5488 5486
5469 5470 5472 5473 5475 5477 5478 5480 5481 5483 5484 5486 5487 5488 5488 5489 5490 5491 5492 5493 5494 5495 5495 5496 5496 5496 5496 5496 5496 5495 5494 5493 5492 5492 5491 5489 5488 5486 5485 5482 5480 5478 5476
5454 5456 5457 5459 5461 5463 5465 5466 5468 5470 5471 5473 5474 5475 5476 5477 5479 5480 5481 5481 5482 5483 5484 5484 5485 5485 5485 5485 5484 5484 5483 5483 5482 5481 5480 5479 5478 5476 5474 5472 5470 5468 5466
5440 5442 5444 5445 5447 5449 5451 5453 5455 5457 5458 5460 5462 5463 5464 5465 5467 5468 5469 5470 5471 5472 5473 5473 5473 5474 5474 5474 5473 5473 5473 5472 5471 5470 5470 5468 5467 5466 5464 5462 5460 5458 5456
5427 5428 5430 5432 5434 5436 5438 5440 5442 5444 5446 5448 5449 5450 5452 5454 5455 5457 5458 5459 5460 5461 5462 5462 5463 5463 5463 5463 5463 5462 5462 5461 5461 5460 5459 5458 5457 5455 5454 5452 5450 5448 5446
5413 5415 5417 5420 5421 5423 5425 5428 5430 5432 5433 5435 5437 5439 5440 5442 5444 5446 5447 5448 5449 5450 5451 5451 5452 5452 5453 5452 5452 5452 5452 5451 5450 5450 5449 5448 5446 5445 5444 5442 5440 5438 5436
5401 5403 5405 5407 5409 5411 5414 5416 5418 5420 5422 5424 5426 5428 5430 5431 5433 5435 5436 5437 5439 5440 5440 5441 5442 5442 5442 5442 5442 5442 5441 5441 5440 5440 5439 5438 5437 5436 5434 5433 5431 5429 5427
5389 5391 5393 5395 5397 5400 5402 5405 5407 5409 5411 5413 5415 5417 5419 5421 5423 5424 5426 5427 5428 5429 5430 5431 5431 5432 5432 5432 5432 5432 5431 5431 5430 5430 5429 5428 5427 5426 5425 5423 5421 5419 5417
5378 5380 5382 5384 5386 5389 5391 5394 5396 5399 5401 5403 5405 5407 5409 5411 5412 5414 5415 5417 5418 5419 5420 5421 5421 5421 5422 5422 5422 5422 5422 5421 5421 5420 5419 5419 5418 5417 5415 5414 5412 5410 5408
Wind_Speed
32 33 33 33 33 33 33 34 34 34 35 36 37 37 37 38 38 38 38 38 39 40 40 40 40 40 40 40 41 41 41 41 40 39 39 40 39 39 39 39 40 40 40
32 32 33 33 33 34 34 34 34 34 35 35 36 36 37 37 38 38 39 39 40 40 39 39 39 39 40 40 40 40 40 39 39 39 39 40 40 40 40 40 40 39 39
31 32 32 32 33 33 33 34 34 33 34 34 34 35 36 36 37 38 38 39 39 39 39 39 38 38 38 38 39 39 39 39 39 39 39 39 39 39 39 40 40 39 39
31 31 32 32 33 33 34 34 34 34 34 34 34 34 34 34 35 37 37 38 38 38 38 38 39 39 39 39 39 39 38 38 38 38 38 39 39 39 39 39 39 38 39
31 31 31 32 33 33 34 34 34 34 34 34 34 33 34 34 34 36 37 37 37 38 38 38 38 39 39 38 38 38 38 37 37 38 37 38 38 38 38 38 38 39 40
31 31 31 32 32 33 33 34 33 33 33 33 33 33 33 33 33 34 34 35 36 37 37 37 37 38 37 37 37 37 38 37 37 37 37 37 37 37 38 38 38 39 40
32 32 32 32 33 33 33 33 33 33 33 33 33 33 33 33 33 33 33 34 35 36 36 36 36 36 37 37 37 37 37 37 37 37 37 36 36 37 38 38 38 40 41
33 33 33 33 33 33 33 33 33 33 33 34 34 34 34 34 33 33 33 33 34 34 35 35 36 36 37 37 37 37 38 38 37 37 36 36 37 37 38 38 39 40 41
35 35 35 34 34 34 34 34 34 34 34 34 34 34 34 33 33 33 33 33 33 34 34 35 36 36 36 37 37 37 37 37 37 37 37 37 37 38 39 39 40 40 40
35 35 35 35 35 34 34 34 34 34 34 34 34 34 33 33 34 34 34 34 34 34 35 35 36 36 36 37 37 37 36 36 36 37 37 37 37 37 38 39 40 40 40
36 36 36 36 36 35 35 35 35 35 35 35 34 34 34 34 35 35 36 36 35 35 35 35 36 36 36 36 37 36 36 36 37 36 37 37 38 38 39 39 40 40 40
38 37 37 37 37 36 37 36 36 37 37 36 36 36 35 36 36 36 36 36 36 35 35 35 35 36 35 36 36 36 36 36 36 36 37 37 38 39 39 40 40 40 40
39 39 39 39 38 38 38 38 38 38 38 37 37 37 36 36 36 36 36 35 35 35 35 35 35 35 35 35 36 36 36 36 36 36 37 37 38 38 39 39 39 39 39
40 40 40 40 39 39 39 39 38 37 37 37 37 36 37 36 36 36 36 35 35 35 35 35 35 34 34 35 35 35 36 36 36 36 36 37 37 38 38 39 39 38 38
42 42 41 41 40 40 39 39 38 38 38 37 37 36 36 36 36 36 36 36 35 35 35 36 35 34 34 34 35 36 36 36 36 36 36 36 36 37 37 38 37 37 37
44 43 43 42 41 40 40 39 39 39 38 38 38 37 37 36 36 36 36 36 36 35 35 35 34 34 34 34 35 36 36 36 36 36 36 36 36 36 36 36 36 36 36
44 44 43 43 42 41 40 39 39 39 38 38 38 38 37 36 36 36 35 35 35 35 34 34 34 34 34 34 35 35 36 36 36 36 36 36 35 35 35 35 35 35 34
44 43 43 42 42 41 40 39 39 39 38 38 37 37 37 37 37 37 36 35 35 35 34 34 34 34 34 34 35 35 35 36 36 35 35 34 34 33 34 34 34 34 33
43 42 42 42 41 40 40 39 39 38 38 37 37 37 37 37 37 36 36 36 35 34 34 34 34 35 35 35 35 36 35 35 34 34 34 33 33 33 33 33 33 33 33
42 42 41 40 40 39 39 39 39 38 38 37 37 38 38 37 36 36 36 35 34 34 34 34 34 35 35 36 36 35 35 34 34 33 33 33 33 33 33 33 33 33 33
41 40 40 39 39 39 39 39 38 38 37 37 37 38 37 37 36 35 35 34 34 33 33 33 34 34 34 34 35 34 34 33 33 33 33 33 33 33 33 33 33 33 33
40 40 39 39 38 38 38 38 38 37 37 36 36 36 36 36 35 34 34 33 33 33 33 33 33 33 33 33 33 33 33 32 32 33 33 33 33 33 32 32 32 32 32
39 39 38 38 38 37 37 36 36 36 36 35 35 34 34 34 34 33 33 32 32 32 32 32 32 32 32 32 32 32 32 32 32 32 32 33 32 32 31 32 32 32 32
37 37 37 37 36 36 35 34 34 34 34 34 33 32 32 32 32 32 32 32 31 31 31 32 32 31 31 31 31 31 31 31 31 31 32 32 31 31 31 31 31 31 31
35 35 35 35 35 34 33 32 32 32 32 32 31 30 30 31 31 31 31 31 31 31 31 31 31 31 31 31 31 31 31 31 31 31 30 31 30 30 31 31 30 30 30
33 33 33 33 33 33 32 31 30 30 30 30 30 30 30 30 30 30 30 30 30 30 30 30 30 30 30 30 30 30 30 31 31 30 30 30 30 30 30 30 30 29 29
Wind_Direction
267 267 266 266 266 266 265 265 264 265 265 265 265 265 266 265 265 265 267 267 267 267 268 268 269 270 270 271 272 274 275 275 275 277 279 280 281 283 284 285 287 287 288
269 268 268 268 267 266 265 265 264 265 266 267 266 266 267 266 266 266 266 267 267 267 267 268 269 269 270 271 272 273 274 274 275 276 278 280 281 281 283 285 287 287 288
272 271 270 270 268 267 266 265 265 265 267 267 268 267 268 267 267 267 267 266 266 266 266 267 269 269 270 271 272 273 274 275 276 277 278 279 280 281 283 285 285 286 287
274 273 271 270 269 268 267 266 266 267 268 269 269 268 268 268 268 267 267 267 266 266 266 266 267 268 269 270 271 273 274 275 276 278 279 279 280 281 283 283 284 286 288
274 273 271 269 269 268 267 267 267 268 269 269 269 269 269 269 269 269 268 268 267 266 265 265 266 268 270 271 271 272 273 275 277 278 279 280 280 281 282 282 283 285 287
273 272 272 270 269 268 268 267 267 268 269 270 270 270 271 271 271 271 271 269 268 268 268 267 267 267 269 270 270 272 274 276 278 279 280 281 282 283 283 284 284 286 288
272 272 272 271 270 270 269 268 268 269 269 269 269 269 271 272 273 273 272 271 270 270 269 268 268 268 269 271 271 273 275 277 278 279 280 282 283 283 284 285 286 288 290
272 271 272 272 271 271 270 269 269 269 269 269 269 269 269 270 271 272 272 272 272 270 269 269 269 269 271 272 273 274 276 277 278 279 280 281 282 283 284 286 287 289 291
272 271 272 272 271 270 270 268 268 268 269 269 269 269 269 270 271 272 272 272 272 271 270 270 270 270 270 272 273 274 275 276 277 279 280 281 282 284 285 286 288 290 291
271 271 271 270 271 270 269 268 268 268 269 269 269 269 269 269 271 272 272 271 271 271 271 271 270 270 271 273 274 274 275 276 278 279 281 281 282 284 286 288 290 291 292
270 270 270 270 270 270 270 269 268 268 269 269 268 268 269 269 271 271 272 272 271 271 271 270 270 271 272 273 274 274 275 276 277 279 279 281 282 284 286 289 291 292 293
270 269 269 269 269 269 269 269 268 269 269 267 267 268 268 269 271 271 272 272 271 270 270 270 271 271 271 272 273 274 275 276 277 278 279 281 282 284 286 289 291 291 293
270 269 268 268 268 269 269 269 269 269 268 267 267 267 268 269 270 270 271 271 271 270 269 269 270 271 272 273 273 274 276 276 277 279 280 281 282 284 286 288 290 291 292
269 269 268 267 267 268 269 269 269 268 267 267 267 267 267 268 269 269 269 269 270 269 269 271 272 273 273 273 273 274 275 277 278 279 280 281 283 286 288 289 291 292 292
269 269 268 267 266 266 267 268 267 267 266 266 266 267 268 267 267 268 268 268 268 269 269 271 272 273 273 274 274 274 276 278 279 280 280 282 284 286 288 290 291 292 293
268 267 267 266 266 266 266 266 267 266 266 266 266 267 267 268 268 267 267 268 268 269 269 270 271 272 274 275 276 276 277 278 279 279 280 282 285 287 289 290 291 292 294
269 267 267 266 266 266 266 266 266 265 265 265 265 267 267 267 267 266 267 267 268 269 269 269 271 272 274 276 277 277 277 278 278 279 281 283 285 287 289 290 291 292 293
269 267 266 266 266 266 266 266 265 264 264 264 265 266 266 266 265 264 265 267 267 267 268 269 270 272 274 275 277 278 278 279 279 281 282 284 284 286 289 290 291 292 293
268 266 265 264 265 265 265 264 264 264 264 264 264 264 265 265 264 264 265 266 266 267 267 268 270 271 273 275 277 278 278 279 281 281 282 283 284 286 288 289 290 291 293
267 265 264 263 263 263 263 262 262 262 263 263 264 264 263 263 264 264 264 265 266 267 267 268 270 272 273 275 277 278 279 280 281 280 281 282 283 286 288 289 290 291 293
265 263 262 261 262 262 262 261 261 261 262 262 263 262 262 261 262 262 263 264 265 266 268 269 271 272 274 275 276 277 278 280 280 280 281 281 283 286 288 289 290 291 293
263 261 260 260 260 261 261 260 260 260 260 261 262 261 261 261 261 262 264 265 266 266 268 270 272 273 274 275 276 277 278 280 280 280 281 281 283 285 287 289 291 292 294
263 261 259 258 259 260 260 259 258 258 259 260 260 261 260 260 260 261 263 264 265 266 267 269 272 273 274 275 275 276 277 279 280 280 281 281 283 285 287 289 291 293 293
262 260 258 257 257 258 258 258 257 257 258 259 259 259 259 259 260 261 263 263 264 266 268 270 272 273 275 275 275 276 277 279 279 279 280 282 283 285 287 289 291 293 294
261 260 258 256 255 256 256 256 256 256 256 256 256 257 258 258 259 261 262 263 263 265 268 270 270 272 273 274 275 276 277 278 278 279 281 282 283 285 287 289 291 292 293
258 257 256 255 254 254 254 254 254 254 254 254 254 256 258 259 259 260 262 262 263 264 267 269 270 272 273 274 275 276 277 278 279 280 281 282 283 285 287 288 290 291 292